This is the latest recevied weather packets stored in our database for station/object TA5KT-13. If no packets are shown the sender has not sent any weather packets the latest 10 day(s).
| Time | Temp. | Humidity | Pressure | Rain* | Wind** | Luminosity | Snow |
|---|---|---|---|---|---|---|---|
| 1778259925 | 20° C | 90% | 1016.3 hPa | - | - | - | - |
| 1778259326 | 20° C | 89% | 1016.2 hPa | - | - | - | - |
| 1778258726 | 20° C | 88% | 1016 hPa | - | - | - | - |
| 1778258125 | 20° C | 87% | 1016 hPa | - | - | - | - |
| 1778257525 | 20° C | 87% | 1016 hPa | - | - | - | - |
| 1778256925 | 20° C | 89% | 1016.1 hPa | - | - | - | - |
| 1778256325 | 19.44° C | 88% | 1016.1 hPa | - | - | - | - |
| 1778255725 | 19.44° C | 85% | 1016 hPa | - | - | - | - |
| 1778255125 | 19.44° C | 79% | 1016 hPa | - | - | - | - |
| 1778254525 | 19.44° C | 72% | 1016 hPa | - | - | - | - |
| 1778253925 | 19.44° C | 65% | 1015.9 hPa | - | - | - | - |
| 1778253325 | 19.44° C | 62% | 1015.7 hPa | - | - | - | - |
| 1778252725 | 19.44° C | 60% | 1015.8 hPa | - | - | - | - |
| 1778252125 | 19.44° C | 58% | 1015.6 hPa | - | - | - | - |
| 1778251525 | 19.44° C | 61% | 1015.6 hPa | - | - | - | - |
| 1778250925 | 19.44° C | 62% | 1015.6 hPa | - | - | - | - |
| 1778250325 | 19.44° C | 61% | 1015.6 hPa | - | - | - | - |
| 1778249724 | 19.44° C | 61% | 1015.6 hPa | - | - | - | - |
| 1778249125 | 19.44° C | 61% | 1015.7 hPa | - | - | - | - |
| 1778248525 | 19.44° C | 62% | 1015.8 hPa | - | - | - | - |
| 1778247924 | 19.44° C | 61% | 1015.8 hPa | - | - | - | - |
| 1778247325 | 18.89° C | 60% | 1015.8 hPa | - | - | - | - |
| 1778246724 | 18.89° C | 61% | 1015.8 hPa | - | - | - | - |
| 1778246125 | 18.89° C | 62% | 1015.8 hPa | - | - | - | - |
| 1778245524 | 18.89° C | 66% | 1015.9 hPa | - | - | - | - |
* Rain since midnight (hover to see other rain measurements)
** Current wind speed in m/s (hover to see current wind gust speed)